Location: Novokuznetsk
(53.7500°N, 87.1000°E)
Time: 18:14:44
(UTC+06:00)

ISS - Pass Details

Date: 25 April 2026
Orbit: 414 x 424 km, 51.6° (Epoch: 18 May)

Event Time Altitude Azimuth Distance (km) Brightness Sun altitude
Exits shadow 04:06:04 - 236° (SW) 1,602 -1.5 -6.5°
Reaches altitude 10° 04:06:20 10° 235° (SW) 1,498 -1.6 -6.5°
Maximum altitude 04:09:32 42° 163° (SSE) 609 -3.0 -6.1°
Drops below altitude 10° 04:12:46 10° 91° (E) 1,509 0.1 -5.6°
Sets 04:14:56 0° 84° (E) 2,377 1.5 -5.4°
